Weather History for Laramie, WY

Change the Weather History Date:

Tuesday, April 30, 2013

  Actual Average Record
Temperature  
Mean Temperature 40 °F 42 °F  
Max Temperature 53 °F 56 °F 76 °F (1992)
Min Temperature 27 °F 29 °F 6 °F (1950)
Degree Days  
Heating Degree Days 25 23  
Month to date heating degree days 975 815  
Since 1 July heating degree days 7940 8049  
Cooling Degree Days 0 0  
Month to date cooling degree days 0 0  
Year to date cooling degree days 0 0  
Moisture  
Dew Point 31 °F    
Average Humidity 66    
Maximum Humidity 100    
Minimum Humidity 32    
Precipitation  
Precipitation 0.24 in 0.05 in 0.57 in (1951)
Month to date precipitation 0.71 1.07  
Year to date precipitation 1.62 2.26  
Sea Level Pressure  
Sea Level Pressure 29.76 in    
Wind  
Wind Speed 12 mph (NE)    
Max Wind Speed 23 mph    
Max Gust Speed 29 mph    
Visibility 8 miles    
Events Fog , Rain , Snow    
T = Trace of Precipitation, MM = Missing Value Source: NWS Daily Summary

Daily Weather History Graph

Daily Weather History Graph

Search for Another Location

Airport:

Trip Planner

Search our weather history database for the weather conditions in past years. The results will help you decide how hot, cold, wet, or windy it might be!

Date:

Astronomy

Apr. 30, 2013 Rise Set
Actual Time 6:01 AM MDT 7:59 PM MDT
Civil Twilight 5:31 AM MDT 8:29 PM MDT
Nautical Twilight 4:54 AM MDT 9:06 PM MDT
Astronomical Twilight 4:14 AM MDT 9:46 PM MDT
Moon 12:25 AM MDT (4/30) 10:32 AM MDT (4/30)
Length of Visible Light 14h 58m
Length of Day
13h 58m
Waning Gibbous, 69% of the Moon is Illuminated
Apr 30
Waning Gibbous
May 2
Last Quarter
May 9
New
May 17
First Quarter
May 24
Full

Hourly Weather History & Observations

Time (MDT) Temp. Windchill Dew Point Humidity Pressure Visibility Wind Dir Wind Speed Gust Speed Precip Events Conditions
12:53 AM 51.1 °F - 23.0 °F 33% 29.48 in 10.0 mi West 15.0 mph - N/A   Clear
1:53 AM 46.0 °F 40.6 °F 24.1 °F 42% 29.48 in 10.0 mi West 11.5 mph - N/A   Clear
2:53 AM 46.0 °F 41.0 °F 24.1 °F 42% 29.49 in 10.0 mi West 10.4 mph 19.6 mph N/A   Clear
3:53 AM 42.1 °F 37.7 °F 26.1 °F 53% 29.52 in 10.0 mi NNW 6.9 mph - N/A   Scattered Clouds
4:53 AM 45.0 °F 38.9 °F 30.0 °F 56% 29.52 in 10.0 mi NW 12.7 mph 19.6 mph N/A   Partly Cloudy
5:53 AM 46.0 °F 42.5 °F 30.9 °F 56% 29.52 in 10.0 mi NNW 6.9 mph - N/A   Overcast
6:53 AM 43.0 °F 39.5 °F 32.0 °F 65% 29.55 in 10.0 mi ENE 5.8 mph - N/A   Overcast
7:53 AM 46.0 °F 43.1 °F 32.0 °F 58% 29.54 in 10.0 mi North 5.8 mph - N/A   Overcast
8:53 AM 48.0 °F - 30.9 °F 52% 29.55 in 10.0 mi NNE 8.1 mph - N/A   Overcast
9:53 AM 51.1 °F - 30.9 °F 46% 29.56 in 10.0 mi North 6.9 mph - N/A   Partly Cloudy
10:53 AM 50.0 °F - 30.9 °F 48% 29.55 in 10.0 mi NE 16.1 mph - N/A   Mostly Cloudy
11:53 AM 44.1 °F 35.9 °F 30.9 °F 60% 29.60 in 10.0 mi North 19.6 mph 26.5 mph N/A   Scattered Clouds
12:53 PM 44.1 °F 37.1 °F 30.9 °F 60% 29.62 in 10.0 mi NNE 15.0 mph 25.3 mph N/A   Overcast
1:53 PM 43.0 °F 36.8 °F 30.0 °F 60% 29.67 in 10.0 mi NNE 11.5 mph 24.2 mph N/A   Mostly Cloudy
2:53 PM 42.1 °F 33.9 °F 32.0 °F 67% 29.68 in 10.0 mi NE 17.3 mph - 0.00 in Rain Light Rain
3:03 PM 41.0 °F 32.5 °F 32.0 °F 70% 29.83 in 10.0 mi NE 17.3 mph 23.0 mph 0.00 in   Overcast
3:53 PM 39.9 °F 31.1 °F 32.0 °F 73% 29.70 in 10.0 mi NE 17.3 mph - 0.00 in   Overcast
4:39 PM 35.6 °F 26.2 °F 33.8 °F 93% 29.86 in - NE 15.0 mph - 0.03 in Snow Light Snow
4:53 PM 34.0 °F 22.7 °F 33.1 °F 96% 29.74 in - NE 19.6 mph - 0.04 in Snow Snow
5:05 PM 33.8 °F 22.5 °F 32.0 °F 93% 29.86 in 0.8 mi NE 19.6 mph 24.2 mph 0.00 in Snow Light Snow
5:15 PM 33.8 °F 23.9 °F 32.0 °F 93% 29.87 in - NE 15.0 mph - 0.00 in Snow Light Snow
5:23 PM 33.8 °F 22.8 °F 32.0 °F 93% 29.84 in 1.0 mi NE 18.4 mph - 0.01 in Snow Light Snow
5:32 PM 33.8 °F 23.5 °F 32.0 °F 93% 29.85 in 0.8 mi NE 16.1 mph - 0.01 in Snow Light Snow
5:49 PM 33.8 °F 23.5 °F 32.0 °F 93% 29.85 in - NE 16.1 mph - 0.01 in Snow Light Snow
5:53 PM 33.1 °F 21.9 °F 32.0 °F 96% 29.75 in - NNE 18.4 mph 24.2 mph 0.01 in Snow Light Snow
6:24 PM 32.0 °F 22.1 °F 32.0 °F 100% 29.90 in - ENE 13.8 mph 25.3 mph 0.04 in Snow Snow
6:30 PM 32.0 °F 23.6 °F 32.0 °F 100% 29.90 in 0.2 mi NE 10.4 mph 20.7 mph 0.05 in Fog , Snow Snow
6:49 PM 32.0 °F 23.6 °F 32.0 °F 100% 29.90 in - NE 10.4 mph - 0.08 in Snow Snow
6:53 PM 32.0 °F 24.2 °F 32.0 °F 100% 29.82 in - NE 9.2 mph - 0.08 in Snow Snow
7:03 PM 32.0 °F - 32.0 °F 100% 29.90 in - Calm Calm - 0.01 in Snow Snow
7:12 PM 32.0 °F 28.7 °F 32.0 °F 100% 29.92 in - WNW 3.5 mph - 0.01 in Snow Snow
7:53 PM 32.0 °F 26.4 °F 32.0 °F 100% 29.85 in - South 5.8 mph - 0.07 in Snow Snow
8:09 PM 32.0 °F 24.8 °F 32.0 °F 100% 29.93 in 4.0 mi SSE 8.1 mph - 0.01 in Snow Light Snow
8:45 PM 32.0 °F 23.0 °F 32.0 °F 100% 29.95 in - SSE 11.5 mph - 0.02 in Snow Light Snow
8:53 PM 32.0 °F 23.6 °F 32.0 °F 100% 29.85 in - South 10.4 mph - 0.02 in   Overcast
9:53 PM 33.1 °F 24.9 °F 32.0 °F 96% 29.79 in - SSE 10.4 mph - 0.00 in   Overcast
10:26 PM 33.8 °F 24.3 °F 30.2 °F 87% 29.97 in - ENE 13.8 mph - N/A   Overcast
10:34 PM 32.0 °F 23.6 °F 30.2 °F 93% 29.97 in - East 10.4 mph - N/A   Overcast
10:53 PM 30.9 °F 19.4 °F 28.0 °F 89% 29.86 in - East 17.3 mph - N/A   Overcast
11:17 PM 30.2 °F 19.8 °F 26.6 °F 86% 29.97 in 1.5 mi East 13.8 mph - 0.00 in Snow Light Snow
11:24 PM 30.2 °F 20.2 °F 28.4 °F 93% 29.97 in 3.0 mi ENE 12.7 mph - 0.00 in Snow Light Snow
11:53 PM 30.0 °F 20.5 °F 27.0 °F 88% 29.92 in - East 11.5 mph - 0.00 in   Overcast